Tracking 19717 objects as of 25-Jun-2019
HD Live streaming from Space Station
objects crossing your sky now

DELTA 1 DEB

Track DELTA 1 DEB now!
10-day predictions


NORAD ID: 12211
Int'l Code: 1978-026BC
Perigee: 793.2 km
Apogee: 967.7 km
Inclination: 99.3 °
Period: 102.4 minutes
Semi major axis: 7251 km
RCS: 0.0111 m2 (small)
Launch date: March 5, 1978
Source: United States (US)
Launch site: AIR FORCE WESTERN TEST RANGE (AFWTR)

Note: This is SATELLITE DEBRIS
aabbcc
Your satellite tracking list
Your tracking list is empty




NASA's NSSDC Master Catalog

Two Line Element Set (TLE):
1 12211U 78026BC  19175.30304728 +.00000052 +00000-0 +57626-4 0  9997
2 12211 099.3454 344.1901 0120363 307.7379 051.2928 14.05937494961061
Source of the keplerian elements: AFSPC